Regional Weather Roundup
Issued by NWS

Home | Current Version | Previous Version | Graphics & Text | Print | Product List | Glossary On
Versions: 1 2 3 4 5 6 7 8 9 10 11 12 13 14 15 16 17 18 19 20 21 22 23 24 25 26 27 28 29 30 31 32 33 34 35 36 37 38 39 40 41 42 43 44 45 46 47 48 49 50
000
ASUS43 KLMK 171902
RWRKY
KENTUCKY REGIONAL WEATHER ROUNDUP
NATIONAL WEATHER SERVICE LOUISVILLE KY
200 PM EST TUE JAN 17 2017

NOTE "FAIR" INDICATES FEW OR NO CLOUDS BELOW 12,000 FEET
WITH NO SIGNIFICANT WEATHER AND/OR OBSTRUCTIONS TO VISIBILITY.

KYZ001>023-026-027-061>063-070>075-172000-
WESTERN AND SOUTH CENTRAL KENTUCKY

CITY           SKY/WX    TMP DP  RH WIND       PRES   REMARKS
PADUCAH        CLOUDY    49  40  71 SW16G24   30.04S
HENDERSON      CLOUDY    50  43  76 W14       30.00F
OWENSBORO      PTSUNNY   53  46  77 NW12      30.00F
HOPKINSVILLE   CLOUDY    57  49  73 SW17      30.01S
BOWLING GREEN  PTSUNNY   62  52  69 SW10      29.99F
GLASGOW        NOT AVBL
$$

KYZ024-025-028>034-038-045-046-053-172000-
NORTH CENTRAL KENTUCKY

CITY           SKY/WX    TMP DP  RH WIND       PRES   REMARKS
LOUISVILLE/SDF CLOUDY    61  46  57 W18G29    29.94S
LOUISVILLE/LOU PTSUNNY   62  47  57 W20       29.95S
FORT KNOX      CLOUDY    58  50  74 W13       29.94S
$$

KYZ035>037-039>044-047>052-055>060-089>105-172000-
NORTHEAST KENTUCKY

CITY           SKY/WX    TMP DP  RH WIND       PRES   REMARKS
LEXINGTON      PTSUNNY   63  56  78 W17G28    29.92F
COVINGTON      PTSUNNY   57  50  77 W20G32    29.89F
FRANKFORT      CLOUDY    64  53  67 W13G23    29.91F
$$

KYZ054-064>069-076>088-106>120-172000-
SOUTHEAST KENTUCKY

CITY           SKY/WX    TMP DP  RH WIND       PRES   REMARKS
JACKSON        CLOUDY    62  56  80 VRB6      29.97F
LONDON         CLOUDY    61  56  83 SW15G23   29.99F
SOMERSET       NOT AVBL
MIDDLESBORO    LGT RAIN  61  57  87 S10G18    30.03F
MONTICELLO     LGT RAIN  62  60  93 W17       30.02S FOG
$$





USA.gov is the U.S. government's official web portal to all federal, state and local government web resources and services.